K0SDS Weather Reports


Display with metric or nautical units.
time (UTC)temp
F
wind
direction
speed
MPH
gust
MPH
rain 1hr
in
rain 24hr
in
rain mn
in
humidity
%
barometer
mb
20260507155505 61 253 3.0 6.0 0.00 0.00 0.00 58 1015.4
20260507155003 61 191 13.0 16.0 0.00 0.00 0.00 57 1015.2
20260507154459 60 283 7.0 11.0 0.00 0.00 0.00 61 1015.3
20260507153956 61 277 9.0 13.0 0.00 0.00 0.00 58 1015.3
20260507153453 61 257 11.0 13.0 0.00 0.00 0.00 57 1015.5
20260507152949 60 249 8.0 9.0 0.00 0.00 0.00 60 1015.4
20260507152445 60 181 5.0 10.0 0.00 0.00 0.00 61 1015.5
20260507151942 60 247 5.0 6.0 0.00 0.00 0.00 61 1015.7
20260507151438 59 261 5.0 7.0 0.00 0.00 0.00 64 1015.5
20260507150935 59 187 10.0 13.0 0.00 0.00 0.00 63 1015.6
20260507150432 59 238 7.0 10.0 0.00 0.00 0.00 63 1015.9
20260507145928 59 200 7.0 8.0 0.00 0.00 0.00 63 1015.7
20260507145424 59 225 7.0 10.0 0.00 0.00 0.00 64 1015.9
20260507144921 58 107 5.0 8.0 0.00 0.00 0.00 65 1016.0
20260507144418 58 192 5.0 6.0 0.00 0.00 0.00 65 1016.2
20260507143915 58 189 4.0 7.0 0.00 0.00 0.00 65 1016.1
20260507143413 57 43 4.0 6.0 0.00 0.00 0.00 66 1016.3
20260507142909 56 82 1.0 2.0 0.00 0.00 0.00 68 1015.9
20260507142405 56 235 6.0 7.0 0.00 0.00 0.00 68 1016.1
20260507141902 55 272 6.0 7.0 0.00 0.00 0.00 67 1016.0
20260507141358 55 260 8.0 10.0 0.00 0.00 0.00 68 1016.0
20260507140855 55 251 7.0 9.0 0.00 0.00 0.00 69 1016.2
20260507140352 55 260 5.0 7.0 0.00 0.00 0.00 70 1016.2
20260507135850 54 158 5.0 7.0 0.00 0.00 0.00 72 1016.2
20260507135346 53 215 3.0 3.0 0.00 0.00 0.00 73 1016.0
20260507134844 53 253 4.0 6.0 0.00 0.00 0.00 73 1016.4
20260507134340 53 229 4.0 6.0 0.00 0.00 0.00 75 1016.2
20260507133836 52 119 3.0 3.0 0.00 0.00 0.00 75 1016.2
20260507133331 52 246 3.0 3.0 0.00 0.00 0.00 76 1016.2
20260507132830 52 149 4.0 5.0 0.00 0.00 0.00 76 1016.2
20260507132326 52 240 3.0 5.0 0.00 0.00 0.00 78 1016.0
20260507131824 51 90 1.0 1.0 0.00 0.00 0.00 79 1016.1
20260507131320 51 186 3.0 3.0 0.00 0.00 0.00 80 1016.2
20260507130817 51 153 2.0 2.0 0.00 0.00 0.00 81 1016.1
20260507130314 50 179 4.0 5.0 0.00 0.00 0.00 80 1016.5
20260507125813 50 89 0.0 0.0 0.00 0.00 0.00 81 1016.4
20260507125310 49 99 2.0 2.0 0.00 0.00 0.00 82 1016.3
20260507124807 49 166 3.0 3.0 0.00 0.00 0.00 83 1016.2
20260507124303 48 144 3.0 3.0 0.00 0.00 0.00 83 1016.1
20260507123802 47 100 1.0 2.0 0.00 0.00 0.00 84 1016.4
20260507123259 47 95 2.0 2.0 0.00 0.00 0.00 86 1016.4
20260507122755 46 101 1.0 1.0 0.00 0.00 0.00 88 1016.3
20260507122250 45 99 1.0 2.0 0.00 0.00 0.00 88 1016.3
20260507121746 44 88 1.0 1.0 0.00 0.00 0.00 88 1016.7
20260507121242 44 84 0.0 1.0 0.00 0.00 0.00 88 1016.5
20260507120738 44 86 0.0 0.0 0.00 0.00 0.00 88 1016.3
20260507120236 44 87 0.0 0.0 0.00 0.00 0.00 88 1016.3
20260507115732 44 88 1.0 1.0 0.00 0.00 0.00 87 1016.4
20260507115228 44 94 1.0 1.0 0.00 0.00 0.00 87 1016.1
20260507114723 44 127 2.0 2.0 0.00 0.00 0.00 87 1016.3
20260507114221 44 89 1.0 1.0 0.00 0.00 0.00 88 1016.4
20260507113718 44 125 2.0 2.0 0.00 0.00 0.00 88 1016.3
20260507113215 44 103 2.0 2.0 0.00 0.00 0.00 88 1016.2
20260507112713 43 110 2.0 2.0 0.00 0.00 0.00 89 1016.3
20260507112210 43 100 1.0 2.0 0.00 0.00 0.00 90 1016.5
20260507111707 42 93 0.0 0.0 0.00 0.00 0.00 90 1016.3
20260507111204 42 80 0.0 0.0 0.00 0.00 0.00 90 1016.5
20260507110659 42 78 0.0 0.0 0.00 0.00 0.00 90 1016.3
20260507110156 42 81 0.0 0.0 0.00 0.00 0.00 89 1016.0
20260507105654 43 101 1.0 1.0 0.00 0.00 0.00 89 1016.3
20260507105149 43 56 2.0 2.0 0.00 0.00 0.00 89 1016.1
20260507104647 43 79 0.0 0.0 0.00 0.00 0.00 89 1015.9
20260507104143 43 77 0.0 0.0 0.00 0.00 0.00 88 1016.2
20260507103639 43 81 0.0 0.0 0.00 0.00 0.00 88 1016.0
20260507103136 43 86 1.0 1.0 0.00 0.00 0.00 89 1016.2
20260507102632 43 81 0.0 0.0 0.00 0.00 0.00 88 1016.3
20260507102128 43 83 0.0 0.0 0.00 0.00 0.00 89 1016.3
20260507101625 43 81 0.0 0.0 0.00 0.00 0.00 89 1016.4
20260507101121 43 82 0.0 0.0 0.00 0.00 0.00 89 1016.1
20260507100618 43 80 0.0 0.0 0.00 0.00 0.00 89 1016.2
20260507100116 43 78 0.0 1.0 0.00 0.00 0.00 90 1016.3
20260507095614 43 79 1.0 1.0 0.00 0.00 0.00 90 1016.2
20260507095110 42 77 0.0 1.0 0.00 0.00 0.00 90 1016.3
20260507094606 42 74 1.0 1.0 0.00 0.00 0.00 90 1016.3
20260507094103 42 72 1.0 1.0 0.00 0.00 0.00 89 1016.5
20260507093601 42 70 0.0 0.0 0.00 0.00 0.00 89 1016.4
20260507093100 42 75 0.0 0.0 0.00 0.00 0.00 89 1016.3
20260507092555 42 78 1.0 1.0 0.00 0.00 0.00 89 1016.3
20260507092052 42 84 0.0 0.0 0.00 0.00 0.00 88 1016.4
20260507091549 43 77 0.0 1.0 0.00 0.00 0.00 88 1016.4
20260507091045 43 80 0.0 0.0 0.00 0.00 0.00 87 1016.4
20260507090541 43 80 0.0 0.0 0.00 0.00 0.00 87 1016.5
20260507090038 44 74 1.0 1.0 0.00 0.00 0.00 86 1016.7
20260507085535 43 77 0.0 0.0 0.00 0.00 0.00 86 1016.5
20260507085032 43 80 0.0 0.0 0.00 0.00 0.00 85 1016.8
20260507084528 44 81 0.0 0.0 0.00 0.00 0.00 84 1016.7
20260507084026 44 79 0.0 0.0 0.00 0.00 0.00 84 1016.5
20260507083522 44 78 0.0 0.0 0.00 0.00 0.00 84 1016.5
20260507083019 44 81 0.0 1.0 0.00 0.00 0.00 83 1016.5
20260507082515 44 80 0.0 0.0 0.00 0.00 0.00 82 1016.8
20260507082011 45 77 1.0 1.0 0.00 0.00 0.00 82 1016.9
20260507081508 45 87 0.0 0.0 0.00 0.00 0.00 82 1016.8
20260507081005 44 82 0.0 0.0 0.00 0.00 0.00 82 1016.8
20260507080500 44 39 3.0 3.0 0.00 0.00 0.00 82 1016.9
20260507075956 45 152 2.0 2.0 0.00 0.00 0.00 81 1016.8
20260507075453 44 71 1.0 1.0 0.00 0.00 0.00 83 1016.7
20260507074949 44 68 1.0 1.0 0.00 0.00 0.00 84 1016.9
20260507074446 44 55 1.0 2.0 0.00 0.00 0.00 85 1016.7
20260507073944 44 72 0.0 0.0 0.00 0.00 0.00 84 1016.8
20260507073440 44 78 0.0 0.0 0.00 0.00 0.00 82 1016.8
20260507072937 44 80 0.0 0.0 0.00 0.00 0.00 81 1016.9
20260507072434 44 79 1.0 1.0 0.00 0.00 0.00 82 1016.9
20260507071932 43 80 0.0 0.0 0.00 0.00 0.00 82 1016.8
20260507071429 44 80 0.0 0.0 0.00 0.00 0.00 82 1016.9
20260507070925 44 74 0.0 0.0 0.00 0.00 0.00 83 1017.0
20260507070422 44 77 0.0 1.0 0.00 0.00 0.00 83 1017.0
20260507065919 44 81 0.0 0.0 0.00 0.00 0.00 82 1017.3
20260507065415 44 78 0.0 0.0 0.00 0.00 0.00 81 1017.3
20260507064907 45 81 0.0 0.0 0.00 0.00 0.00 80 1017.6
20260507064406 45 80 0.0 0.0 0.00 0.00 0.00 79 1017.4
20260507063903 46 78 0.0 1.0 0.00 0.00 0.00 77 1017.3
20260507063400 46 79 1.0 1.0 0.00 0.00 0.00 77 1017.4
20260507062857 46 79 0.0 0.0 0.00 0.00 0.00 76 1017.5
20260507062353 46 79 0.0 0.0 0.00 0.00 0.00 76 1017.2
20260507061851 47 77 1.0 1.0 0.00 0.00 0.00 74 1017.7
20260507061349 47 81 0.0 1.0 0.00 0.00 0.00 73 1017.6
20260507060848 48 83 1.0 1.0 0.00 0.00 0.00 71 1017.7
20260507060344 49 83 0.0 1.0 0.00 0.00 0.00 69 1017.4
20260507055841 49 87 0.0 0.0 0.00 0.00 0.00 64 1017.7
20260507055335 50 92 1.0 1.0 0.00 0.00 0.00 64 1017.6
20260507054833 50 107 1.0 2.0 0.00 0.00 0.00 64 1017.5
20260507054329 50 98 2.0 2.0 0.00 0.00 0.00 65 1017.8
20260507053826 50 93 1.0 2.0 0.00 0.00 0.00 64 1017.5
20260507053324 49 89 1.0 1.0 0.00 0.00 0.00 64 1017.5
20260507052822 49 90 1.0 1.0 0.00 0.00 0.00 65 1017.6
20260507052319 49 94 1.0 2.0 0.00 0.00 0.00 66 1017.5
20260507051817 49 110 2.0 2.0 0.00 0.00 0.00 66 1017.5
20260507051314 49 97 1.0 1.0 0.00 0.00 0.00 68 1017.6
20260507050811 48 111 2.0 2.0 0.00 0.00 0.00 68 1017.6
20260507050307 48 98 1.0 1.0 0.00 0.00 0.00 70 1017.7
20260507045804 47 91 1.0 1.0 0.00 0.01 0.01 74 1017.3
20260507045300 46 82 1.0 1.0 0.00 0.01 0.01 82 1017.4
20260507044757 47 87 0.0 0.0 0.00 0.01 0.01 84 1017.5
20260507044254 48 90 0.0 1.0 0.00 0.01 0.01 75 1017.5
20260507043750 48 89 1.0 1.0 0.00 0.01 0.01 71 1017.5
20260507043247 47 91 1.0 1.0 0.00 0.01 0.01 73 1017.5
20260507042743 46 93 0.0 1.0 0.00 0.01 0.01 76 1017.5
20260507042238 46 87 0.0 0.0 0.00 0.01 0.01 80 1017.5
20260507041736 46 86 0.0 0.0 0.00 0.01 0.01 81 1017.4
20260507041232 46 86 0.0 0.0 0.00 0.01 0.01 81 1017.5
20260507040730 46 86 0.0 0.0 0.00 0.01 0.01 82 1017.5
20260507040225 46 86 0.0 0.0 0.00 0.01 0.01 83 1017.4
20260507035722 45 88 0.0 1.0 0.00 0.01 0.01 83 1017.4
20260507035217 45 83 0.0 0.0 0.00 0.01 0.01 84 1017.4
20260507034715 45 84 0.0 0.0 0.00 0.01 0.01 84 1017.8
20260507034212 45 85 0.0 0.0 0.00 0.01 0.01 84 1017.3
20260507033710 44 86 0.0 0.0 0.00 0.01 0.01 85 1017.7
20260507033207 44 85 0.0 0.0 0.00 0.01 0.01 84 1017.8
20260507032705 44 82 0.0 0.0 0.00 0.01 0.01 83 1017.7
20260507032200 43 83 0.0 0.0 0.00 0.01 0.01 83 1017.7
20260507031657 43 83 0.0 0.0 0.00 0.01 0.01 82 1017.9
20260507031154 43 85 0.0 0.0 0.00 0.01 0.01 82 1017.7
20260507030650 43 86 0.0 0.0 0.00 0.01 0.01 82 1017.7
20260507030149 44 83 0.0 0.0 0.00 0.01 0.01 80 1017.4
20260507025645 44 83 0.0 0.0 0.00 0.01 0.01 79 1017.5
20260507025142 44 84 0.0 0.0 0.00 0.01 0.01 78 1017.4
20260507024640 44 83 0.0 0.0 0.00 0.01 0.01 77 1017.4
20260507024137 45 85 0.0 0.0 0.00 0.01 0.01 77 1017.3
20260507023632 45 82 0.0 0.0 0.00 0.01 0.01 77 1017.3
20260507023130 45 82 0.0 0.0 0.00 0.01 0.01 76 1017.3
20260507022627 46 82 0.0 0.0 0.00 0.01 0.01 76 1017.5
20260507022122 46 81 0.0 0.0 0.00 0.01 0.01 75 1017.3
20260507021619 46 84 0.0 0.0 0.00 0.01 0.01 74 1017.3
20260507021115 47 83 0.0 0.0 0.00 0.01 0.01 72 1017.0
20260507020613 47 79 0.0 0.0 0.00 0.01 0.01 71 1017.0
20260507020109 48 85 0.0 0.0 0.00 0.01 0.01 69 1017.1
20260507015608 48 80 0.0 0.0 0.00 0.01 0.01 66 1017.0
20260507015105 48 79 0.0 0.0 0.00 0.01 0.01 67 1016.9
20260507014602 49 81 0.0 1.0 0.00 0.01 0.01 66 1016.9
20260507014057 49 81 0.0 0.0 0.00 0.01 0.01 68 1016.5
20260507013554 50 81 0.0 0.0 0.00 0.01 0.01 63 1016.7
20260507013051 50 79 0.0 0.0 0.00 0.01 0.01 61 1016.9
20260507012548 51 80 0.0 0.0 0.00 0.01 0.01 61 1016.8
20260507012044 52 82 0.0 0.0 0.00 0.01 0.01 61 1016.8
20260507011542 52 79 0.0 1.0 0.00 0.01 0.01 59 1016.9
20260507011032 54 85 0.0 0.0 0.00 0.01 0.01 62 1016.8
20260507010532 55 80 1.0 1.0 0.00 0.01 0.01 57 1016.8
20260507010024 55 69 1.0 2.0 0.00 0.01 0.01 59 1016.8
20260507005521 57 84 0.0 0.0 0.00 0.01 0.01 51 1016.9
20260507005017 58 81 0.0 0.0 0.00 0.01 0.01 47 1016.8
20260507004514 58 84 0.0 0.0 0.00 0.01 0.01 42 1016.5
20260507004012 59 77 0.0 1.0 0.00 0.01 0.01 37 1016.7
20260507003507 60 81 0.0 1.0 0.00 0.01 0.01 38 1016.7
20260507003002 61 87 0.0 0.0 0.00 0.01 0.01 35 1016.7
20260507002459 62 96 0.0 0.0 0.00 0.01 0.01 37 1016.7
20260507001955 62 87 0.0 0.0 0.00 0.01 0.01 36 1016.4
20260507001451 62 62 1.0 2.0 0.00 0.01 0.01 35 1016.3
20260507000944 62 77 1.0 1.0 0.00 0.01 0.01 38 1016.5
20260507000439 62 77 0.0 1.0 0.00 0.01 0.01 38 1016.7
20260506235935 62 90 0.0 0.0 0.00 0.01 0.01 36 1016.5
20260506235433 62 80 0.0 0.0 0.00 0.01 0.01 38 1016.7
20260506234927 62 60 1.0 1.0 0.00 0.01 0.01 36 1016.8
20260506234426 62 42 2.0 2.0 0.00 0.01 0.01 36 1016.8
20260506233923 62 72 2.0 2.0 0.00 0.01 0.01 35 1016.8
20260506233419 61 22 3.0 3.0 0.00 0.01 0.01 36 1016.7
20260506232916 61 54 3.0 5.0 0.00 0.01 0.01 34 1016.7
20260506232412 62 218 4.0 5.0 0.00 0.01 0.01 33 1016.7
20260506231908 62 54 1.0 2.0 0.00 0.01 0.01 33 1016.8
20260506231406 62 7 1.0 2.0 0.00 0.01 0.01 33 1016.8
20260506230903 62 76 2.0 2.0 0.00 0.01 0.01 34 1016.9
20260506230359 62 109 1.0 2.0 0.00 0.01 0.01 35 1017.1
20260506225855 62 10 2.0 2.0 0.00 0.01 0.01 36 1017.0
20260506225353 62 89 1.0 1.0 0.00 0.01 0.01 38 1017.0
20260506224850 61 328 4.0 5.0 0.00 0.01 0.01 39 1016.8
20260506224347 62 291 4.0 5.0 0.00 0.01 0.01 35 1017.1
20260506223843 62 248 3.0 5.0 0.00 0.01 0.01 35 1016.8
20260506223338 62 87 0.0 1.0 0.00 0.01 0.01 35 1016.8
20260506222836 63 79 1.0 1.0 0.00 0.01 0.01 35 1017.1
20260506222331 62 101 2.0 2.0 0.00 0.01 0.01 37 1017.0
20260506221825 63 67 2.0 3.0 0.00 0.01 0.01 39 1017.1
20260506221322 62 88 1.0 2.0 0.00 0.01 0.01 39 1016.9
20260506220819 62 96 1.0 2.0 0.00 0.01 0.01 40 1017.2
20260506220314 63 26 1.0 1.0 0.00 0.01 0.01 39 1017.0
20260506215811 64 72 1.0 1.0 0.00 0.01 0.01 35 1017.1
20260506215307 63 56 2.0 2.0 0.00 0.01 0.01 38 1017.2
20260506214803 64 84 1.0 2.0 0.00 0.01 0.01 37 1017.2
20260506214300 62 95 2.0 2.0 0.00 0.01 0.01 37 1017.0
20260506213758 63 70 2.0 3.0 0.00 0.01 0.01 34 1017.5
20260506213255 62 359 3.0 3.0 0.00 0.01 0.01 34 1017.3
20260506212752 63 51 1.0 2.0 0.00 0.01 0.01 38 1017.4
20260506212248 63 26 2.0 2.0 0.00 0.01 0.01 39 1017.6
20260506211743 64 311 6.0 9.0 0.00 0.01 0.01 36 1017.6
20260506211240 63 100 1.0 2.0 0.00 0.01 0.01 42 1017.6
20260506210737 63 81 1.0 2.0 0.00 0.01 0.01 36 1017.5
20260506210234 64 64 2.0 3.0 0.00 0.01 0.01 37 1017.7
20260506205731 63 21 3.0 5.0 0.00 0.01 0.01 38 1018.0
20260506205226 63 270 3.0 7.0 0.00 0.01 0.01 36 1018.0
20260506204723 62 82 3.0 5.0 0.00 0.01 0.01 35 1017.9
20260506204221 62 13 5.0 6.0 0.00 0.01 0.01 35 1017.9
20260506203719 62 234 5.0 6.0 0.00 0.01 0.01 35 1018.4
20260506203216 62 120 1.0 2.0 0.00 0.01 0.01 37 1018.2
20260506202713 61 75 1.0 2.0 0.00 0.01 0.01 44 1018.3
20260506202208 63 59 0.0 1.0 0.00 0.01 0.01 36 1018.4
20260506201701 62 79 2.0 3.0 0.00 0.01 0.01 41 1018.5
20260506201157 61 271 2.0 2.0 0.00 0.01 0.01 40 1018.7
20260506200654 61 140 2.0 2.0 0.00 0.01 0.01 41 1018.5
20260506200151 60 121 3.0 3.0 0.00 0.01 0.01 37 1018.5
20260506195647 61 168 2.0 2.0 0.00 0.01 0.01 37 1018.6
20260506195143 61 251 6.0 7.0 0.00 0.01 0.01 38 1018.5
20260506194641 62 249 5.0 8.0 0.00 0.01 0.01 36 1018.4
20260506194137 61 250 0.0 2.0 0.00 0.01 0.01 42 1018.5
20260506193635 60 87 2.0 2.0 0.00 0.01 0.01 38 1018.8
20260506193132 61 258 4.0 5.0 0.00 0.01 0.01 41 1018.6
20260506192629 61 66 2.0 2.0 0.00 0.01 0.01 36 1018.6
20260506192125 61 349 2.0 3.0 0.00 0.01 0.01 38 1018.4
20260506191622 60 353 2.0 3.0 0.00 0.01 0.01 36 1018.7
20260506191117 60 87 1.0 1.0 0.00 0.01 0.01 36 1018.7
20260506190615 60 23 2.0 3.0 0.00 0.01 0.01 38 1018.6
20260506190112 60 77 1.0 2.0 0.00 0.01 0.01 34 1018.6
20260506185609 60 33 3.0 5.0 0.00 0.01 0.01 33 1018.4
20260506185105 60 38 1.0 2.0 0.00 0.01 0.01 35 1018.7
20260506184603 60 160 3.0 3.0 0.00 0.01 0.01 35 1018.8
20260506184100 61 92 1.0 1.0 0.00 0.01 0.01 35 1018.6
20260506183556 61 84 3.0 5.0 0.00 0.01 0.01 37 1018.7
20260506183052 60 123 1.0 2.0 0.00 0.01 0.01 40 1018.7
20260506182550 59 91 2.0 2.0 0.00 0.01 0.01 39 1018.8
20260506182047 59 20 2.0 2.0 0.00 0.01 0.01 38 1019.3
20260506181545 60 237 2.0 3.0 0.00 0.01 0.01 37 1019.1
20260506181041 59 119 2.0 2.0 0.00 0.01 0.01 40 1019.0
20260506180537 59 33 4.0 6.0 0.00 0.01 0.01 39 1019.0
20260506180029 60 169 2.0 3.0 0.00 0.01 0.01 43 1019.0
20260506175525 59 16 3.0 5.0 0.00 0.01 0.01 35 1019.2
20260506175022 58 104 1.0 1.0 0.00 0.01 0.01 45 1019.0
20260506174520 59 84 0.0 1.0 0.00 0.01 0.01 38 1019.2
20260506174010 59 75 3.0 3.0 0.00 0.01 0.01 44 1019.3
20260506173508 58 49 3.0 5.0 0.00 0.01 0.01 41 1019.4
20260506173005 58 71 0.0 0.0 0.00 0.01 0.01 44 1019.2
20260506172502 59 60 1.0 2.0 0.00 0.01 0.01 42 1019.2
20260506171958 57 87 0.0 1.0 0.00 0.01 0.01 40 1019.4
20260506171456 57 44 3.0 3.0 0.00 0.01 0.01 40 1019.3
20260506170953 58 30 2.0 5.0 0.00 0.01 0.01 40 1019.5
20260506170449 58 110 2.0 2.0 0.00 0.01 0.01 42 1019.5
20260506165942 57 231 3.0 3.0 0.00 0.01 0.01 46 1019.5
20260506165440 57 56 1.0 1.0 0.00 0.01 0.01 41 1019.4
20260506164936 57 11 3.0 5.0 0.00 0.01 0.01 42 1019.7
20260506164432 56 187 1.0 2.0 0.00 0.01 0.01 44 1019.5
20260506163925 56 350 2.0 2.0 0.00 0.01 0.01 41 1019.4
20260506163419 57 67 3.0 3.0 0.00 0.01 0.01 40 1019.3
20260506162914 57 84 2.0 2.0 0.00 0.01 0.01 43 1019.4
20260506162413 56 51 1.0 1.0 0.00 0.01 0.01 46 1019.5
20260506161909 56 2 2.0 3.0 0.00 0.01 0.01 40 1019.4
20260506161408 56 52 2.0 3.0 0.00 0.01 0.01 42 1019.2
20260506160859 56 62 1.0 2.0 0.00 0.01 0.01 43 1019.2
20260506160355 56 70 4.0 5.0 0.00 0.01 0.01 39 1019.2
20260506155854 58 73 3.0 6.0 0.00 0.01 0.01 43 1019.1